| time (UTC) | temp F | wind direction | speed MPH | gust MPH | rain 1hr in | rain 24hr in | rain mn in | humidity % | barometer mb |
| 20260504200327 | 74 | 230 | 4.0 | 9.0 | 0.00 | 0.02 | 0.02 | 49 | 1015.8 |
| 20260504195827 | 74 | 276 | 4.0 | 8.0 | 0.00 | 0.02 | 0.02 | 48 | 1015.8 |
| 20260504195327 | 74 | 259 | 4.0 | 9.0 | 0.00 | 0.02 | 0.02 | 48 | 1016.3 |
| 20260504194827 | 74 | 170 | 3.0 | 9.0 | 0.00 | 0.02 | 0.02 | 47 | 1016.3 |
| 20260504194327 | 74 | 191 | 3.0 | 8.0 | 0.00 | 0.02 | 0.02 | 46 | 1016.3 |
| 20260504193827 | 74 | 218 | 3.0 | 7.0 | 0.00 | 0.02 | 0.02 | 49 | 1016.6 |
| 20260504193327 | 74 | 226 | 3.0 | 6.0 | 0.00 | 0.02 | 0.02 | 50 | 1016.6 |
| 20260504192827 | 74 | 256 | 3.0 | 7.0 | 0.00 | 0.02 | 0.02 | 49 | 1016.6 |
| 20260504192547 | 74 | 198 | 3.0 | 11.0 | 0.00 | 0.02 | 0.02 | 48 | 1016.9 |
| 20260504191827 | 73 | 271 | 4.0 | 11.0 | 0.00 | 0.02 | 0.02 | 49 | 1016.9 |
| 20260504191326 | 73 | 177 | 4.0 | 8.0 | 0.00 | 0.02 | 0.02 | 49 | 1016.9 |
| 20260504191048 | 72 | 219 | 4.0 | 10.0 | 0.00 | 0.02 | 0.02 | 49 | 1017.1 |
| 20260504190314 | 72 | 195 | 4.0 | 10.0 | 0.00 | 0.02 | 0.02 | 50 | 1017.1 |
| 20260504185815 | 72 | 259 | 3.0 | 8.0 | 0.00 | 0.02 | 0.02 | 50 | 1017.1 |
| 20260504185314 | 72 | 195 | 3.0 | 6.0 | 0.00 | 0.02 | 0.02 | 52 | 1017.2 |
| 20260504184814 | 71 | 203 | 3.0 | 6.0 | 0.00 | 0.02 | 0.02 | 49 | 1017.2 |
| 20260504184314 | 71 | 262 | 3.0 | 7.0 | 0.00 | 0.02 | 0.02 | 50 | 1017.2 |
| 20260504183811 | 71 | 236 | 4.0 | 7.0 | 0.00 | 0.02 | 0.02 | 52 | 1017.4 |
| 20260504183311 | 70 | 255 | 4.0 | 7.0 | 0.00 | 0.02 | 0.02 | 53 | 1017.4 |
| 20260504182813 | 70 | 203 | 3.0 | 8.0 | 0.00 | 0.02 | 0.02 | 52 | 1017.4 |
| 20260504182313 | 70 | 179 | 3.0 | 8.0 | 0.00 | 0.02 | 0.02 | 51 | 1017.6 |
| 20260504182016 | 69 | 270 | 4.0 | 10.0 | 0.00 | 0.02 | 0.02 | 51 | 1017.6 |
| 20260504181904 | 69 | 221 | 4.0 | 10.0 | 0.00 | 0.02 | 0.02 | 51 | 1017.6 |
| 20260504180809 | 69 | 169 | 4.0 | 9.0 | 0.00 | 0.02 | 0.02 | 50 | 1017.8 |
| 20260504180309 | 69 | 184 | 4.0 | 9.0 | 0.00 | 0.02 | 0.02 | 51 | 1017.8 |
| 20260504175809 | 69 | 186 | 2.0 | 8.0 | 0.00 | 0.02 | 0.02 | 52 | 1017.8 |
| 20260504175309 | 68 | 209 | 2.0 | 8.0 | 0.00 | 0.02 | 0.02 | 53 | 1017.9 |
| 20260504174809 | 68 | 251 | 3.0 | 6.0 | 0.00 | 0.02 | 0.02 | 53 | 1017.9 |
| 20260504174310 | 67 | 116 | 3.0 | 6.0 | 0.00 | 0.02 | 0.02 | 52 | 1017.9 |
| 20260504174031 | 67 | 194 | 3.0 | 6.0 | 0.00 | 0.02 | 0.02 | 54 | 1018.0 |
| 20260504173307 | 67 | 277 | 3.0 | 7.0 | 0.00 | 0.02 | 0.02 | 54 | 1018.0 |
| 20260504172805 | 67 | 267 | 3.0 | 8.0 | 0.00 | 0.02 | 0.02 | 55 | 1018.0 |
| 20260504172533 | 66 | 195 | 3.0 | 9.0 | 0.00 | 0.02 | 0.02 | 56 | 1018.2 |
| 20260504171804 | 66 | 184 | 3.0 | 9.0 | 0.00 | 0.02 | 0.02 | 53 | 1018.2 |
| 20260504171307 | 66 | 141 | 3.0 | 6.0 | 0.00 | 0.02 | 0.02 | 53 | 1018.2 |
| 20260504170802 | 65 | 181 | 3.0 | 6.0 | 0.00 | 0.02 | 0.02 | 56 | 1018.7 |
| 20260504170303 | 65 | 172 | 3.0 | 6.0 | 0.00 | 0.02 | 0.02 | 56 | 1018.7 |
| 20260504160242 | 58 | 273 | 2.0 | 5.0 | 0.00 | 0.02 | 0.02 | 72 | 1019.8 |
| 20260504150736 | 51 | 2 | 2.0 | 4.0 | 0.02 | 0.02 | 0.02 | 91 | 1020.3 |
| 20260504150230 | 51 | 354 | 2.0 | 4.0 | 0.02 | 0.02 | 0.02 | 89 | 1020.3 |
| 20260504141139 | 51 | 13 | 1.0 | 3.0 | 0.00 | 0.00 | 0.00 | 80 | 1021.5 |
| 20260504140635 | 51 | 13 | 1.0 | 3.0 | 0.00 | 0.00 | 0.00 | 81 | 1021.5 |
| 20260504140134 | 50 | 14 | 1.0 | 3.0 | 0.00 | 0.00 | 0.00 | 80 | 1021.5 |
| 20260504130516 | 48 | 13 | 0.0 | 2.0 | 0.00 | 0.00 | 0.00 | 83 | 1020.6 |
| 20260504110231 | 41 | 1 | 2.0 | 3.0 | 0.00 | 0.00 | 0.00 | 93 | 1019.2 |
| 20260504100607 | 42 | 13 | 0.0 | 2.0 | 0.00 | 0.00 | 0.00 | 89 | 1019.5 |
| 20260504081831 | 43 | 2 | 1.0 | 4.0 | 0.00 | 0.00 | 0.00 | 86 | 1019.5 |
| 20260504081319 | 43 | 3 | 1.0 | 4.0 | 0.00 | 0.00 | 0.00 | 86 | 1019.5 |
| 20260504080818 | 43 | 3 | 1.0 | 3.0 | 0.00 | 0.00 | 0.00 | 86 | 1019.3 |
| 20260504080313 | 43 | 3 | 1.0 | 2.0 | 0.00 | 0.00 | 0.00 | 85 | 1019.3 |
| 20260504070144 | 45 | 5 | 2.0 | 4.0 | 0.00 | 0.00 | 0.00 | 81 | 1019.3 |
| 20260504050541 | 48 | 358 | 2.0 | 4.0 | 0.00 | 0.00 | 0.00 | 73 | 1019.6 |
| 20260504050528 | 48 | 6 | 2.0 | 4.0 | 0.00 | 0.00 | 0.00 | 73 | 1019.6 |
| 20260504045800 | 48 | 15 | 2.0 | 4.0 | 0.00 | 0.00 | 0.00 | 72 | 1019.5 |
| 20260504045253 | 48 | 15 | 2.0 | 4.0 | 0.00 | 0.00 | 0.00 | 71 | 1019.5 |
| 20260504044523 | 49 | 15 | 2.0 | 3.0 | 0.00 | 0.00 | 0.00 | 71 | 1019.5 |
| 20260504044006 | 49 | 15 | 2.0 | 3.0 | 0.00 | 0.00 | 0.00 | 70 | 1019.4 |
| 20260504043455 | 49 | 15 | 2.0 | 3.0 | 0.00 | 0.00 | 0.00 | 70 | 1019.4 |
| 20260504042955 | 49 | 15 | 2.0 | 4.0 | 0.00 | 0.00 | 0.00 | 69 | 1019.4 |
| 20260504042716 | 49 | 15 | 2.0 | 4.0 | 0.00 | 0.00 | 0.00 | 69 | 1019.4 |
| 20260504042222 | 49 | 15 | 2.0 | 3.0 | 0.00 | 0.00 | 0.00 | 69 | 1019.4 |
| 20260504041453 | 49 | 15 | 1.0 | 3.0 | 0.00 | 0.00 | 0.00 | 68 | 1019.4 |
| 20260504040953 | 49 | 15 | 1.0 | 2.0 | 0.00 | 0.00 | 0.00 | 68 | 1019.4 |
| 20260504040453 | 49 | 15 | 1.0 | 3.0 | 0.00 | 0.00 | 0.00 | 67 | 1019.4 |
| 20260504040213 | 50 | 15 | 1.0 | 3.0 | 0.00 | 0.00 | 0.00 | 67 | 1019.4 |
| 20260504035453 | 50 | 15 | 3.0 | 3.0 | 0.00 | 0.00 | 0.00 | 66 | 1019.3 |
| 20260504034950 | 50 | 15 | 3.0 | 5.0 | 0.00 | 0.00 | 0.00 | 66 | 1019.3 |
| 20260504034443 | 50 | 15 | 2.0 | 5.0 | 0.00 | 0.00 | 0.00 | 65 | 1019.3 |
| 20260504033941 | 51 | 11 | 2.0 | 5.0 | 0.00 | 0.00 | 0.00 | 64 | 1019.3 |
| 20260504033703 | 51 | 338 | 1.0 | 4.0 | 0.00 | 0.00 | 0.00 | 64 | 1019.3 |
| 20260504032938 | 51 | 338 | 1.0 | 2.0 | 0.00 | 0.00 | 0.00 | 64 | 1019.3 |
| 20260504032438 | 51 | 338 | 2.0 | 3.0 | 0.00 | 0.00 | 0.00 | 62 | 1019.2 |
| 20260504031933 | 51 | 338 | 2.0 | 3.0 | 0.00 | 0.00 | 0.00 | 61 | 1019.2 |
| 20260504031431 | 51 | 338 | 2.0 | 3.0 | 0.00 | 0.00 | 0.00 | 60 | 1019.2 |
| 20260504030930 | 51 | 338 | 2.0 | 3.0 | 0.00 | 0.00 | 0.00 | 60 | 1019.2 |
| 20260504030423 | 51 | 338 | 2.0 | 4.0 | 0.00 | 0.00 | 0.00 | 60 | 1019.2 |
| 20260504025921 | 52 | 338 | 2.0 | 4.0 | 0.00 | 0.00 | 0.00 | 61 | 1019.2 |
| 20260504025653 | 52 | 335 | 2.0 | 3.0 | 0.00 | 0.00 | 0.00 | 60 | 1019.1 |
| 20260504024858 | 52 | 335 | 2.0 | 4.0 | 0.00 | 0.00 | 0.00 | 59 | 1019.1 |
| 20260504024358 | 52 | 335 | 3.0 | 4.0 | 0.00 | 0.00 | 0.00 | 58 | 1019.1 |
| 20260504023858 | 53 | 335 | 3.0 | 4.0 | 0.00 | 0.00 | 0.00 | 60 | 1019.1 |
| 20260504023358 | 53 | 335 | 2.0 | 4.0 | 0.00 | 0.00 | 0.00 | 59 | 1019.1 |
| 20260504022851 | 53 | 332 | 2.0 | 4.0 | 0.00 | 0.00 | 0.00 | 57 | 1019.1 |
| 20260504022351 | 53 | 296 | 1.0 | 3.0 | 0.00 | 0.00 | 0.00 | 58 | 1019.0 |
| 20260504021851 | 53 | 234 | 1.0 | 3.0 | 0.00 | 0.00 | 0.00 | 57 | 1019.0 |
| 20260504021346 | 53 | 234 | 0.0 | 1.0 | 0.00 | 0.00 | 0.00 | 56 | 1019.0 |
| 20260504020845 | 53 | 234 | 0.0 | 1.0 | 0.00 | 0.00 | 0.00 | 55 | 1019.0 |
| 20260504020338 | 53 | 234 | 0.0 | 1.0 | 0.00 | 0.00 | 0.00 | 55 | 1019.0 |
| 20260504015838 | 53 | 235 | 0.0 | 1.0 | 0.00 | 0.00 | 0.00 | 55 | 1019.0 |
| 20260504015338 | 53 | 235 | 0.0 | 1.0 | 0.00 | 0.00 | 0.00 | 55 | 1018.9 |
| 20260504014828 | 54 | 235 | 0.0 | 2.0 | 0.00 | 0.00 | 0.00 | 55 | 1018.9 |
| 20260504014328 | 54 | 234 | 0.0 | 2.0 | 0.00 | 0.00 | 0.00 | 55 | 1018.9 |
| 20260504013813 | 54 | 235 | 0.0 | 2.0 | 0.00 | 0.00 | 0.00 | 54 | 1018.8 |
| 20260504013313 | 54 | 229 | 0.0 | 2.0 | 0.00 | 0.00 | 0.00 | 54 | 1018.8 |
| 20260504012811 | 54 | 229 | 0.0 | 2.0 | 0.00 | 0.00 | 0.00 | 53 | 1018.8 |
| 20260504012254 | 54 | 229 | 0.0 | 2.0 | 0.00 | 0.00 | 0.00 | 53 | 1018.9 |
| 20260504012222 | 54 | 229 | 0.0 | 1.0 | 0.00 | 0.00 | 0.00 | 52 | 1018.9 |
| 20260504011514 | 55 | 229 | 0.0 | 0.0 | 0.00 | 0.00 | 0.00 | 51 | 1018.9 |
| 20260504010705 | 55 | 229 | 0.0 | 1.0 | 0.00 | 0.00 | 0.00 | 51 | 1018.9 |
| 20260504010405 | 55 | 229 | 0.0 | 2.0 | 0.00 | 0.00 | 0.00 | 50 | 1018.9 |
| 20260504005910 | 56 | 229 | 0.0 | 2.0 | 0.00 | 0.00 | 0.00 | 51 | 1018.7 |
| 20260504005121 | 56 | 229 | 0.0 | 2.0 | 0.00 | 0.00 | 0.00 | 50 | 1018.7 |
| 20260504004621 | 56 | 229 | 2.0 | 2.0 | 0.00 | 0.00 | 0.00 | 50 | 1018.7 |
| 20260504004045 | 57 | 229 | 2.0 | 3.0 | 0.00 | 0.00 | 0.00 | 49 | 1018.6 |
| 20260504003545 | 57 | 229 | 2.0 | 4.0 | 0.00 | 0.00 | 0.00 | 49 | 1018.6 |
| 20260504003027 | 58 | 253 | 2.0 | 4.0 | 0.00 | 0.00 | 0.00 | 49 | 1018.6 |
| 20260504002530 | 58 | 242 | 3.0 | 5.0 | 0.00 | 0.00 | 0.00 | 48 | 1018.2 |
| 20260504002020 | 59 | 202 | 3.0 | 5.0 | 0.00 | 0.00 | 0.00 | 46 | 1018.2 |
| 20260504001518 | 59 | 210 | 3.0 | 7.0 | 0.00 | 0.00 | 0.00 | 45 | 1018.2 |
| 20260504001018 | 59 | 199 | 3.0 | 7.0 | 0.00 | 0.00 | 0.00 | 44 | 1018.3 |
| 20260504000954 | 60 | 204 | 4.0 | 6.0 | 0.00 | 0.00 | 0.00 | 43 | 1018.3 |
| 20260504000018 | 60 | 200 | 4.0 | 6.0 | 0.00 | 0.00 | 0.00 | 43 | 1018.3 |
| 20260503235518 | 61 | 199 | 3.0 | 6.0 | 0.00 | 0.00 | 0.00 | 42 | 1018.5 |
| 20260503235014 | 61 | 213 | 3.0 | 6.0 | 0.00 | 0.00 | 0.00 | 42 | 1018.5 |
| 20260503234514 | 62 | 192 | 4.0 | 8.0 | 0.00 | 0.00 | 0.00 | 40 | 1018.5 |
| 20260503234506 | 62 | 200 | 4.0 | 8.0 | 0.00 | 0.00 | 0.00 | 40 | 1018.3 |
| 20260503233513 | 62 | 189 | 4.0 | 8.0 | 0.00 | 0.00 | 0.00 | 40 | 1018.3 |
| 20260503233013 | 63 | 204 | 4.0 | 8.0 | 0.00 | 0.00 | 0.00 | 39 | 1018.3 |
| 20260503232513 | 63 | 189 | 3.0 | 8.0 | 0.00 | 0.00 | 0.00 | 39 | 1018.7 |
| 20260503232012 | 63 | 192 | 3.0 | 7.0 | 0.00 | 0.00 | 0.00 | 39 | 1018.7 |
| 20260503231513 | 63 | 189 | 4.0 | 7.0 | 0.00 | 0.00 | 0.00 | 40 | 1018.7 |
| 20260503231013 | 63 | 181 | 4.0 | 9.0 | 0.00 | 0.00 | 0.00 | 39 | 1018.7 |
| 20260503230512 | 63 | 188 | 4.0 | 9.0 | 0.00 | 0.00 | 0.00 | 38 | 1018.7 |
| 20260503230013 | 63 | 186 | 4.0 | 9.0 | 0.00 | 0.00 | 0.00 | 38 | 1018.7 |
| 20260503225513 | 63 | 209 | 5.0 | 9.0 | 0.00 | 0.00 | 0.00 | 38 | 1018.8 |
| 20260503225010 | 63 | 224 | 5.0 | 9.0 | 0.00 | 0.00 | 0.00 | 37 | 1018.8 |
| 20260503224510 | 63 | 217 | 4.0 | 10.0 | 0.00 | 0.00 | 0.00 | 37 | 1018.8 |
| 20260503224010 | 63 | 172 | 4.0 | 10.0 | 0.00 | 0.00 | 0.00 | 36 | 1018.9 |
| 20260503223503 | 63 | 208 | 4.0 | 11.0 | 0.00 | 0.00 | 0.00 | 36 | 1018.9 |
| 20260503223002 | 63 | 257 | 4.0 | 11.0 | 0.00 | 0.00 | 0.00 | 35 | 1018.9 |
| 20260503222502 | 63 | 186 | 4.0 | 10.0 | 0.00 | 0.00 | 0.00 | 36 | 1019.0 |
| 20260503222003 | 63 | 189 | 4.0 | 10.0 | 0.00 | 0.00 | 0.00 | 34 | 1019.0 |
| 20260503221502 | 64 | 179 | 4.0 | 10.0 | 0.00 | 0.00 | 0.00 | 35 | 1019.0 |
| 20260503221236 | 64 | 193 | 4.0 | 10.0 | 0.00 | 0.00 | 0.00 | 37 | 1019.0 |
| 20260503220503 | 64 | 204 | 4.0 | 10.0 | 0.00 | 0.00 | 0.00 | 35 | 1019.0 |
| 20260503220004 | 64 | 255 | 4.0 | 10.0 | 0.00 | 0.00 | 0.00 | 36 | 1019.0 |
| 20260503215503 | 64 | 214 | 4.0 | 10.0 | 0.00 | 0.00 | 0.00 | 35 | 1019.2 |
| 20260503215004 | 64 | 190 | 4.0 | 9.0 | 0.00 | 0.00 | 0.00 | 36 | 1019.2 |
| 20260503214504 | 64 | 203 | 4.0 | 9.0 | 0.00 | 0.00 | 0.00 | 37 | 1019.2 |
| 20260503214005 | 64 | 187 | 4.0 | 10.0 | 0.00 | 0.00 | 0.00 | 35 | 1019.3 |
| 20260503213503 | 64 | 204 | 3.0 | 15.0 | 0.00 | 0.00 | 0.00 | 36 | 1019.3 |
| 20260503213002 | 64 | 219 | 3.0 | 15.0 | 0.00 | 0.00 | 0.00 | 37 | 1019.3 |
| 20260503212502 | 64 | 218 | 4.0 | 9.0 | 0.00 | 0.00 | 0.00 | 34 | 1019.4 |
| 20260503212003 | 64 | 204 | 4.0 | 10.0 | 0.00 | 0.00 | 0.00 | 37 | 1019.4 |
| 20260503211725 | 64 | 280 | 5.0 | 10.0 | 0.00 | 0.00 | 0.00 | 35 | 1019.4 |
| 20260503211233 | 64 | 236 | 5.0 | 10.0 | 0.00 | 0.00 | 0.00 | 38 | 1019.5 |
| 20260503210932 | 64 | 167 | 4.0 | 14.0 | 0.00 | 0.00 | 0.00 | 36 | 1019.5 |
| 20260503210550 | 64 | 261 | 4.0 | 11.0 | 0.00 | 0.00 | 0.00 | 36 | 1019.5 |
| 20260503205503 | 64 | 173 | 3.0 | 14.0 | 0.00 | 0.00 | 0.00 | 35 | 1019.7 |
| 20260503205003 | 64 | 176 | 3.0 | 8.0 | 0.00 | 0.00 | 0.00 | 36 | 1019.7 |
| 20260503204504 | 63 | 201 | 4.0 | 11.0 | 0.00 | 0.00 | 0.00 | 36 | 1019.7 |
| 20260503204003 | 63 | 206 | 4.0 | 11.0 | 0.00 | 0.00 | 0.00 | 34 | 1019.8 |
| 20260503203503 | 64 | 174 | 4.0 | 8.0 | 0.00 | 0.00 | 0.00 | 34 | 1019.8 |
| 20260503203004 | 64 | 286 | 4.0 | 10.0 | 0.00 | 0.00 | 0.00 | 35 | 1019.8 |
| 20260503202503 | 64 | 196 | 4.0 | 10.0 | 0.00 | 0.00 | 0.00 | 35 | 1020.2 |
| 20260503202229 | 63 | 163 | 4.0 | 9.0 | 0.00 | 0.00 | 0.00 | 38 | 1020.2 |
| 20260503201723 | 63 | 162 | 4.0 | 11.0 | 0.00 | 0.00 | 0.00 | 37 | 1020.2 |
| 20260503201001 | 63 | 200 | 4.0 | 11.0 | 0.00 | 0.00 | 0.00 | 36 | 1020.4 |
| 20260503200719 | 63 | 199 | 4.0 | 6.0 | 0.00 | 0.00 | 0.00 | 37 | 1020.4 |